• In Schweiz
  • Länderverzeichnis
  • Für 7 Tage
  • Wassertemperatur
  • Satellitenkarten
  • Wetterkarte
  • Widgets
  • user-avatar
    Anmelden

    Stündliche Wetter Zayavane

    Heute, 20 August, Montag

    Zeit Temperatur Niederschläge Wind Luftdruck Luftfeuchtigkeit
    00:00 +14°C° 0 mm 3 m/S 753 mmHg 94%
    01:00 +14°C° 0 mm 2 m/S 753 mmHg 94%
    02:00 +14°C° 0 mm 2 m/S 753 mmHg 95%
    03:00 +14°C° 0 mm 2 m/S 753 mmHg 95%
    04:00 +14°C° 0 mm 2 m/S 753 mmHg 95%
    05:00 +14°C° 0 mm 2 m/S 753 mmHg 94%
    06:00 +15°C° 0 mm 2 m/S 752 mmHg 91%
    07:00 +16°C° 0 mm 2 m/S 752 mmHg 88%
    08:00 +16°C° 0 mm 2 m/S 752 mmHg 85%
    09:00 +17°C° 0,2 mm 2 m/S 752 mmHg 86%
    10:00 +17°C° 0,2 mm 2 m/S 752 mmHg 87%
    11:00 +17°C° 0,2 mm 2 m/S 751 mmHg 88%
    12:00 +17°C° 0,9 mm 2 m/S 751 mmHg 89%
    13:00 +17°C° 0,9 mm 3 m/S 750 mmHg 90%
    14:00 +18°C° 0,9 mm 3 m/S 750 mmHg 92%
    15:00 +18°C° 0,9 mm 3 m/S 749 mmHg 91%
    16:00 +19°C° 0,9 mm 4 m/S 748 mmHg 91%
    17:00 +19°C° 0,9 mm 4 m/S 748 mmHg 91%
    18:00 +19°C° 1,1 mm 3 m/S 747 mmHg 92%
    19:00 +18°C° 1,1 mm 3 m/S 746 mmHg 94%
    20:00 +18°C° 1,1 mm 3 m/S 745 mmHg 96%
    21:00 +18°C° 0,3 mm 3 m/S 744 mmHg 95%
    22:00 +18°C° 0,3 mm 4 m/S 744 mmHg 95%
    23:00 +17°C° 0,3 mm 4 m/S 743 mmHg 94%

    Morgen, 21 August, Dienstag

    Zeit Temperatur Niederschläge Wind Luftdruck Luftfeuchtigkeit
    00:00 +16°C° 1,2 mm 5 m/S 742 mmHg 95%
    01:00 +16°C° 1,2 mm 5 m/S 742 mmHg 95%
    02:00 +16°C° 1,2 mm 5 m/S 742 mmHg 95%
    03:00 +15°C° 0,2 mm 5 m/S 742 mmHg 95%
    04:00 +14°C° 0,2 mm 5 m/S 743 mmHg 94%
    05:00 +13°C° 0,2 mm 5 m/S 743 mmHg 94%
    06:00 +13°C° 0,3 mm 5 m/S 744 mmHg 92%
    07:00 +13°C° 0,3 mm 6 m/S 745 mmHg 91%
    08:00 +13°C° 0,3 mm 6 m/S 745 mmHg 89%
    09:00 +13°C° 0,6 mm 6 m/S 746 mmHg 88%
    10:00 +13°C° 0,6 mm 5 m/S 747 mmHg 88%
    11:00 +13°C° 0,6 mm 5 m/S 748 mmHg 88%
    12:00 +14°C° 0,3 mm 5 m/S 748 mmHg 82%
    13:00 +15°C° 0,3 mm 5 m/S 749 mmHg 76%
    14:00 +16°C° 0,3 mm 5 m/S 749 mmHg 70%
    15:00 +16°C° 0,1 mm 5 m/S 749 mmHg 67%
    16:00 +16°C° 0,1 mm 5 m/S 750 mmHg 64%
    17:00 +17°C° 0,1 mm 5 m/S 750 mmHg 61%
    18:00 +15°C° 0,1 mm 4 m/S 751 mmHg 65%
    19:00 +14°C° 0,1 mm 4 m/S 751 mmHg 69%
    20:00 +13°C° 0,1 mm 4 m/S 751 mmHg 72%
    21:00 +12°C° 0 mm 4 m/S 752 mmHg 73%
    22:00 +12°C° 0 mm 4 m/S 752 mmHg 75%
    23:00 +12°C° 0 mm 4 m/S 753 mmHg 76%

    übermorgen, 22 August, Mittwoch

    Zeit Temperatur Niederschläge Wind Luftdruck Luftfeuchtigkeit
    00:00 +11°C° 0 mm 4 m/S 753 mmHg 75%
    01:00 +11°C° 0 mm 4 m/S 753 mmHg 75%
    02:00 +10°C° 0 mm 4 m/S 754 mmHg 74%
    03:00 +10°C° 0 mm 4 m/S 754 mmHg 73%
    04:00 +10°C° 0 mm 4 m/S 755 mmHg 72%
    05:00 +9°C° 0 mm 3 m/S 756 mmHg 72%
    06:00 +11°C° 0 mm 4 m/S 756 mmHg 65%
    07:00 +13°C° 0 mm 4 m/S 756 mmHg 59%
    08:00 +14°C° 0 mm 5 m/S 757 mmHg 53%
    09:00 +15°C° 0 mm 5 m/S 757 mmHg 50%
    10:00 +16°C° 0 mm 5 m/S 757 mmHg 47%
    11:00 +17°C° 0 mm 5 m/S 758 mmHg 44%
    12:00 +17°C° 0 mm 5 m/S 758 mmHg 44%
    13:00 +18°C° 0 mm 4 m/S 758 mmHg 44%
    14:00 +19°C° 0 mm 4 m/S 758 mmHg 44%
    15:00 +19°C° 0 mm 4 m/S 758 mmHg 46%
    16:00 +18°C° 0 mm 3 m/S 758 mmHg 49%
    17:00 +18°C° 0 mm 3 m/S 758 mmHg 51%
    18:00 +16°C° 0 mm 3 m/S 758 mmHg 58%
    19:00 +15°C° 0 mm 2 m/S 758 mmHg 66%
    20:00 +13°C° 0 mm 2 m/S 757 mmHg 73%
    21:00 +13°C° 0 mm 2 m/S 757 mmHg 75%
    22:00 +13°C° 0 mm 2 m/S 757 mmHg 78%
    23:00 +12°C° 0 mm 2 m/S 757 mmHg 81%

    23 August, Donnerstag

    Zeit Temperatur Niederschläge Wind Luftdruck Luftfeuchtigkeit
    00:00 +11°C° 0 mm 3 m/S 757 mmHg 81%
    01:00 +11°C° 0 mm 3 m/S 757 mmHg 82%
    02:00 +11°C° 0 mm 3 m/S 757 mmHg 83%
    03:00 +11°C° 0 mm 3 m/S 757 mmHg 82%
    04:00 +11°C° 0 mm 3 m/S 757 mmHg 82%
    05:00 +11°C° 0 mm 4 m/S 756 mmHg 81%
    06:00 +13°C° 0 mm 4 m/S 756 mmHg 76%
    07:00 +14°C° 0 mm 4 m/S 756 mmHg 70%
    08:00 +15°C° 0 mm 5 m/S 756 mmHg 65%
    09:00 +17°C° 0 mm 5 m/S 756 mmHg 61%
    10:00 +19°C° 0 mm 5 m/S 756 mmHg 57%
    11:00 +21°C° 0 mm 5 m/S 755 mmHg 52%
    12:00 +22°C° 0 mm 5 m/S 755 mmHg 51%
    13:00 +22°C° 0 mm 5 m/S 755 mmHg 50%
    14:00 +23°C° 0 mm 5 m/S 755 mmHg 49%
    15:00 +23°C° 0 mm 4 m/S 754 mmHg 52%
    16:00 +23°C° 0 mm 4 m/S 754 mmHg 54%
    17:00 +24°C° 0 mm 3 m/S 754 mmHg 56%
    18:00 +21°C° 0 mm 3 m/S 754 mmHg 63%
    19:00 +19°C° 0 mm 3 m/S 754 mmHg 70%
    20:00 +17°C° 0 mm 3 m/S 754 mmHg 77%
    21:00 +17°C° 0 mm 3 m/S 754 mmHg 80%
    22:00 +16°C° 0 mm 3 m/S 754 mmHg 82%
    23:00 +16°C° 0 mm 3 m/S 754 mmHg 85%

    24 August, Freitag

    Zeit Temperatur Niederschläge Wind Luftdruck Luftfeuchtigkeit
    00:00 +16°C° 0 mm 3 m/S 754 mmHg 87%
    01:00 +14°C° 0 mm 3 m/S 754 mmHg 89%
    02:00 +14°C° 0 mm 3 m/S 754 mmHg 90%
    03:00 +14°C° 0 mm 3 m/S 754 mmHg 91%
    04:00 +14°C° 0 mm 3 m/S 754 mmHg 92%
    05:00 +14°C° 0 mm 3 m/S 753 mmHg 92%
    06:00 +16°C° 0 mm 3 m/S 753 mmHg 87%
    07:00 +17°C° 0 mm 3 m/S 753 mmHg 81%
    08:00 +19°C° 0 mm 4 m/S 753 mmHg 76%
    09:00 +20°C° 0 mm 4 m/S 753 mmHg 69%
    10:00 +22°C° 0 mm 4 m/S 753 mmHg 63%
    11:00 +25°C° 0 mm 4 m/S 753 mmHg 56%
    12:00 +25°C° 0 mm 4 m/S 753 mmHg 54%
    13:00 +26°C° 0 mm 5 m/S 752 mmHg 52%
    14:00 +26°C° 0 mm 5 m/S 752 mmHg 50%
    15:00 +26°C° 0 mm 4 m/S 752 mmHg 53%
    16:00 +26°C° 0 mm 4 m/S 752 mmHg 55%
    17:00 +25°C° 0 mm 3 m/S 751 mmHg 58%
    18:00 +24°C° 0 mm 3 m/S 751 mmHg 62%
    19:00 +21°C° 0 mm 3 m/S 751 mmHg 67%
    20:00 +20°C° 0 mm 3 m/S 751 mmHg 72%
    21:00 +19°C° 0 mm 4 m/S 751 mmHg 71%
    22:00 +19°C° 0 mm 4 m/S 751 mmHg 71%
    23:00 +19°C° 0 mm 4 m/S 751 mmHg 71%

    25 August, Samstag

    Zeit Temperatur Niederschläge Wind Luftdruck Luftfeuchtigkeit
    00:00 +19°C° 0 mm 4 m/S 751 mmHg 71%
    01:00 +18°C° 0 mm 4 m/S 751 mmHg 72%
    02:00 +18°C° 0 mm 4 m/S 750 mmHg 72%
    03:00 +17°C° 0,1 mm 4 m/S 750 mmHg 74%
    04:00 +17°C° 0,1 mm 4 m/S 750 mmHg 75%
    05:00 +17°C° 0,1 mm 4 m/S 750 mmHg 77%
    06:00 +18°C° 0 mm 4 m/S 750 mmHg 74%
    07:00 +19°C° 0 mm 4 m/S 750 mmHg 71%
    08:00 +19°C° 0 mm 4 m/S 750 mmHg 69%
    09:00 +21°C° 0 mm 4 m/S 750 mmHg 65%
    10:00 +22°C° 0 mm 4 m/S 751 mmHg 61%
    11:00 +25°C° 0 mm 4 m/S 751 mmHg 58%
    12:00 +26°C° 0 mm 4 m/S 751 mmHg 57%
    13:00 +26°C° 0 mm 4 m/S 751 mmHg 55%
    14:00 +27°C° 0 mm 4 m/S 751 mmHg 54%
    15:00 +26°C° 0,3 mm 3 m/S 751 mmHg 62%
    16:00 +25°C° 0,3 mm 2 m/S 751 mmHg 71%
    17:00 +24°C° 0,3 mm 2 m/S 751 mmHg 79%
    18:00 +21°C° 0,5 mm 2 m/S 751 mmHg 84%
    19:00 +21°C° 0,5 mm 1 m/S 751 mmHg 90%
    20:00 +19°C° 0,5 mm 1 m/S 751 mmHg 95%
    21:00 +19°C° 0,2 mm 1 m/S 751 mmHg 95%
    22:00 +18°C° 0,2 mm 1 m/S 752 mmHg 95%
    23:00 +18°C° 0,2 mm 1 m/S 752 mmHg 95%
    Mehr zeigen